K1PH Weather Reports


Display with metric or nautical units.
time (UTC)temp
F
wind
direction
speed
MPH
gust
MPH
rain 1hr
in
rain 24hr
in
rain mn
in
humidity
%
barometer
mb
20260510182010 69 262 4.0 8.0 0.00 0.00 0.00 59 992.3
20260510181009 69 228 2.0 6.0 0.00 0.00 0.00 61 992.4
20260510175010 67 311 2.0 5.0 0.00 0.00 0.00 65 992.5
20260510174010 66 200 1.0 5.0 0.00 0.00 0.00 72 992.8
20260510173009 65 287 2.0 7.0 0.00 0.00 0.00 74 992.8
20260510172009 63 311 1.0 3.0 0.00 0.00 0.00 83 993.0
20260510171009 64 308 3.0 5.0 0.00 0.00 0.00 73 992.8
20260510170009 65 326 2.0 3.0 0.00 0.00 0.00 73 992.8
20260510165010 65 208 2.0 2.0 0.00 0.00 0.00 73 992.8
20260510163009 66 183 1.0 7.0 0.00 0.00 0.00 70 992.8
20260510162012 65 163 2.0 5.0 0.00 0.00 0.00 73 992.8
20260510161009 64 305 3.0 5.0 0.00 0.00 0.00 69 992.8
20260510160008 64 184 1.0 6.0 0.00 0.00 0.00 75 993.0
20260510155008 63 238 2.0 5.0 0.00 0.00 0.00 78 993.2
20260510154008 63 118 2.0 3.0 0.00 0.00 0.00 76 993.2
20260510153009 61 201 1.0 3.0 0.00 0.00 0.00 81 993.2
20260510152008 61 209 2.0 3.0 0.00 0.00 0.00 81 993.2
20260510151009 59 1 0.0 5.0 0.00 0.00 0.00 84 993.1
20260510145008 57 78 5.0 5.0 0.00 0.00 0.00 90 993.3
20260510144008 56 256 2.0 3.0 0.00 0.00 0.00 88 993.4
20260510142008 56 234 0.0 1.0 0.00 0.00 0.00 92 993.5
20260510141008 55 250 1.0 2.0 0.00 0.00 0.00 91 993.4
20260510135009 53 146 1.0 2.0 0.00 0.00 0.00 94 993.5
20260510134008 53 126 1.0 1.0 0.00 0.00 0.00 94 993.4
20260510133009 49 123 0.0 0.0 0.00 0.00 0.00 97 991.7
20260510131008 49 123 0.0 0.0 0.00 0.00 0.00 97 991.7
20260510130009 49 123 0.0 0.0 0.00 0.00 0.00 97 991.7
20260510124008 49 123 0.0 0.0 0.00 0.00 0.00 97 991.7
20260510123008 49 123 0.0 0.0 0.00 0.00 0.00 97 991.7
20260510122008 49 123 0.0 0.0 0.00 0.00 0.00 97 991.7
20260510121008 49 123 0.0 0.0 0.00 0.00 0.00 97 991.7
20260510120008 49 123 0.0 0.0 0.00 0.00 0.00 97 991.7
20260510115008 49 123 0.0 0.0 0.00 0.00 0.00 97 991.7
20260510114008 49 123 0.0 0.0 0.00 0.00 0.00 97 991.7
20260510113008 49 123 0.0 0.0 0.00 0.00 0.00 97 991.7
20260510112008 49 123 0.0 0.0 0.00 0.00 0.00 97 991.7
20260510111008 49 123 0.0 0.0 0.00 0.00 0.00 97 991.7
20260510110008 49 123 0.0 0.0 0.00 0.00 0.00 97 991.7
20260510105012 49 123 0.0 0.0 0.00 0.00 0.00 97 991.7
20260510104008 49 123 0.0 0.0 0.00 0.00 0.00 97 991.7
20260510103008 49 123 0.0 0.0 0.00 0.00 0.00 97 991.7
20260510102008 49 123 0.0 0.0 0.00 0.00 0.00 97 991.7
20260510101008 49 123 0.0 0.0 0.00 0.00 0.00 97 991.7
20260510100008 49 123 0.0 0.0 0.00 0.00 0.00 97 991.7
20260510095008 49 123 0.0 0.0 0.00 0.00 0.00 97 991.7
20260510093007 49 123 0.0 0.0 0.00 0.00 0.00 97 991.7
20260510091008 49 123 0.0 0.0 0.00 0.00 0.00 97 991.7
20260510090007 49 123 0.0 0.0 0.00 0.00 0.00 97 991.7
20260510085008 49 123 0.0 0.0 0.00 0.00 0.00 97 991.7
20260510084007 49 123 0.0 0.0 0.00 0.00 0.00 97 991.7
20260510082008 49 123 0.0 0.0 0.00 0.00 0.00 97 991.7
20260510074007 49 123 0.0 0.0 0.00 0.00 0.00 97 991.7
20260510072007 49 123 0.0 1.0 0.00 0.00 0.00 97 991.6
20260510070007 49 142 0.0 1.0 0.00 0.00 0.00 97 991.6
20260510065007 49 132 1.0 1.0 0.00 0.00 0.00 97 991.6
20260510063007 49 138 0.0 1.0 0.00 0.00 0.00 97 991.7
20260510062007 49 143 0.0 0.0 0.00 0.00 0.00 97 991.7
20260510061006 49 143 0.0 0.0 0.00 0.00 0.00 97 991.7
20260510055007 49 143 0.0 0.0 0.00 0.00 0.00 97 991.6
20260510053007 49 143 0.0 1.0 0.00 0.00 0.00 97 991.8
20260510052007 49 127 0.0 0.0 0.00 0.00 0.00 97 991.7
20260510051007 49 127 0.0 0.0 0.00 0.00 0.00 97 991.7
20260510050006 49 127 0.0 0.0 0.00 0.00 0.00 97 991.9
20260510045006 49 127 0.0 0.0 0.00 0.00 0.00 97 991.9
20260510044007 49 127 0.0 1.0 0.00 0.00 0.00 97 992.0
20260510043006 49 140 0.0 2.0 0.00 0.00 0.00 97 992.0
20260510041007 49 137 0.0 1.0 0.00 0.00 0.00 97 992.2
20260510040006 49 133 0.0 0.0 0.00 0.00 0.00 97 992.2
20260510035006 49 133 0.0 0.0 0.00 0.00 0.00 97 992.1
20260510034007 49 133 0.0 0.0 0.00 0.00 0.00 97 992.1
20260510033006 49 133 0.0 2.0 0.00 0.00 0.00 97 992.0
20260510032007 49 120 0.0 1.0 0.00 0.00 0.00 97 992.1
20260510031006 49 146 1.0 2.0 0.00 0.00 0.00 97 992.0
20260510025006 49 135 1.0 1.0 0.00 0.00 0.00 97 992.3
20260510024006 49 132 0.0 0.0 0.00 0.00 0.00 97 992.4
20260510023006 48 132 0.0 1.0 0.00 0.00 0.00 97 992.5
20260510022006 48 150 0.0 1.0 0.00 0.00 0.00 96 992.5
20260510021006 48 109 0.0 1.0 0.00 0.00 0.00 96 992.6
20260510020005 48 148 0.0 2.0 0.00 0.00 0.00 96 992.6
20260510015006 48 127 0.0 1.0 0.00 0.00 0.00 96 992.7
20260510014005 48 136 1.0 2.0 0.00 0.00 0.00 96 992.6
20260510013006 48 110 1.0 1.0 0.00 0.00 0.00 96 992.7
20260510012006 48 160 0.0 1.0 0.00 0.00 0.00 96 992.6
20260510011006 48 132 0.0 0.0 0.00 0.00 0.00 96 992.5
20260510010005 48 132 0.0 0.0 0.00 0.00 0.00 96 992.3
20260510005006 48 132 0.0 0.0 0.00 0.00 0.00 96 992.2
20260510004006 48 132 0.0 0.0 0.00 0.00 0.00 96 992.2
20260510003005 48 132 0.0 1.0 0.00 0.00 0.00 96 992.1
20260510002006 48 130 1.0 1.0 0.00 0.00 0.00 96 992.0
20260510001008 48 143 0.0 0.0 0.00 0.00 0.00 96 992.0
20260509234005 49 90 1.0 2.0 0.00 0.00 0.00 96 992.0
20260509233005 49 148 1.0 1.0 0.00 0.00 0.00 96 991.9
20260509232006 49 148 0.0 2.0 0.00 0.00 0.00 96 991.9
20260509230005 49 121 0.0 1.0 0.00 0.00 0.00 96 991.9
20260509225005 49 152 1.0 1.0 0.00 0.00 0.00 96 991.9
20260509223006 49 135 1.0 1.0 0.00 0.00 0.00 96 991.8
20260509222005 49 118 0.0 0.0 0.00 0.00 0.00 96 991.9
20260509221005 49 118 1.0 1.0 0.00 0.00 0.00 96 991.9
20260509220004 48 289 1.0 2.0 0.00 0.00 0.00 96 991.9
20260509215005 48 125 2.0 2.0 0.00 0.00 0.00 96 991.9
20260509213005 48 88 2.0 3.0 0.00 0.00 0.00 96 992.2
20260509212006 48 109 1.0 3.0 0.00 0.00 0.00 96 992.4
20260509211005 48 103 3.0 3.0 0.00 0.00 0.00 96 992.4
20260509210004 48 86 2.0 3.0 0.00 0.00 0.00 96 992.4
20260509205005 48 97 2.0 3.0 0.00 0.00 0.00 96 992.5
20260509204005 48 94 2.0 3.0 0.00 0.00 0.00 96 992.6
20260509203004 48 93 2.0 3.0 0.00 0.00 0.00 95 992.6
20260509202005 48 125 1.0 3.0 0.00 0.00 0.00 95 992.8
20260509201005 48 99 2.0 3.0 0.00 0.00 0.00 95 992.8
20260509200010 48 83 1.0 2.0 0.00 0.00 0.00 94 992.8
20260509195010 48 147 0.0 2.0 0.00 0.00 0.00 94 993.0
20260509194010 48 115 1.0 2.0 0.00 0.00 0.00 94 993.0
20260509193010 48 82 0.0 2.0 0.00 0.00 0.00 94 993.1
20260509192010 47 133 0.0 2.0 0.00 0.00 0.00 94 993.1
20260509191010 47 139 0.0 1.0 0.00 0.00 0.00 94 993.1
20260509190009 47 141 0.0 1.0 0.00 0.00 0.00 95 993.2
20260509184010 47 147 0.0 0.0 0.00 0.00 0.00 95 993.2